Regional Weather Roundup
Issued by NWS Glasgow, MT

Current Version | Previous Version | Text Only | Print | Product List | Glossary On
Versions: 1 2 3 4 5 6 7 8 9 10 11 12 13 14 15 16 17 18 19 20 21 22 23 24 25 26 27 28 29 30 31 32 33 34 35 36 37 38 39 40 41 42 43 44 45 46 47 48 49 50
000
ASUS45 KGGW 201315
RWRGGW
HOURLY WEATHER ROUNDUP FOR NORTHEAST MONTANA
NATIONAL WEATHER SERVICE GLASGOW MONTANA
700 AM MDT MON OCT 20 2014

NOTE: "FAIR" INDICATES FEW OR NO CLOUDS BELOW 12,000 FEET WITH NO
SIGNIFICANT WEATHER AND/OR OBSTRUCTIONS TO VISISBILITY.

NORTHEAST MONTANA


CITY           SKY/WX    TMP DP  RH WIND       PRES   REMARKS
GLASGOW        CLEAR     42  35  76 E14       29.87S
PLENTYWOOD       N/A     46  35  65 SE5         N/A
WOLF POINT     CLEAR     35  31  85 NE6       29.91F
JORDAN           N/A     31  29  92 CALM      29.89F
WINNETT          N/A     34  30  86 CALM        N/A
SIDNEY         CLEAR     37  34  87 CALM      29.97S
GLENDIVE       PTCLDY    37  32  81 CALM      29.95F
MALTA            N/A     37  36  96 NE3         N/A
SCOBEY           N/A     39  32  76 CALM      29.89S

FORT PECK REPORTS


CITY           SKY/WX    TMP DP  RH WIND       PRES   REMARKS
FORT PECK        N/A     54  42  64 SE13        N/A
THE PINES        N/A     50  39  66 S5          N/A

SOUTHEAST MONTANA


CITY           SKY/WX    TMP DP  RH WIND       PRES   REMARKS
BILLINGS       PTCLDY    45  31  58 SW16      29.93F
MILES CITY     CLEAR     47  37  68 SE8       29.92F
BAKER          CLEAR     42  35  76 SE10      29.98F
LIVINGSTON     CLEAR     40  26  57 NW16      29.99S

CENTRAL MONTANA


CITY           SKY/WX    TMP DP  RH WIND       PRES   REMARKS
HAVRE          CLEAR     35  33  92 CALM      29.84R
LEWISTOWN      CLEAR     44  30  57 SE7       29.92S
GREAT FALLS    CLEAR     54  28  36 S14       29.86S
CUT BANK       CLEAR     39  28  64 CALM      29.82F
HELENA         CLEAR     38  32  79 CALM      29.96S
BUTTE          CLEAR     28  23  81 S5        30.03S
BOZEMAN        CLEAR     29  25  85 SE5       30.00F

WESTERN MONTANA


CITY           SKY/WX    TMP DP  RH WIND       PRES   REMARKS
MISSOULA       PTCLDY    33  32  96 N3        29.93S
KALISPELL      NOT AVBL

NORTH DAKOTA


CITY           SKY/WX    TMP DP  RH WIND       PRES   REMARKS
WILLISTON      CLEAR     38  34  85 CALM      29.97F
DICKINSON      CLEAR     40  34  79 S12       30.00F
MINOT          CLEAR     37  31  78 E3        30.01R
BISMARCK       PTCLDY    30  29  96 CALM      30.07R

SOUTHERN SASKATCHEWAN


CITY           SKY/WX    TMP DP  RH WIND       PRES   REMARKS
REGINA         PTCLDY    39  36  87 SE12      29.87F
MOOSE JAW      PTCLDY    43  39  87 S14       29.83F
ESTEVAN        PTCLDY    37  34  87 SE7       29.95F
SWIFT CURRENT  CLEAR     48  39  71 S15       29.79S



USA.gov is the U.S. government's official web portal to all federal, state and local government web resources and services.